VK2HN Weather Reports


time (UTC)temp
F
wind
direction
speed
knots
gust
knots
rain 1hr
in
rain 24hr
in
rain mn
in
humidity
%
barometer
mb
20260509090444 54 101 0.0 0.0 0.00 0.00 0.00 89 1025.9
20260509085944 54 101 0.0 0.0 0.00 0.00 0.00 88 1025.7
20260509085444 54 101 0.0 0.0 0.00 0.00 0.00 88 1025.8
20260509084944 54 101 0.0 0.0 0.00 0.00 0.00 87 1025.6
20260509084444 55 101 0.0 0.9 0.00 0.00 0.00 86 1025.7
20260509083944 55 101 0.0 0.9 0.00 0.00 0.00 87 1025.5
20260509083444 55 101 0.0 0.0 0.00 0.00 0.00 87 1025.4
20260509082944 55 101 0.0 0.0 0.00 0.00 0.00 86 1025.3
20260509082444 56 101 0.0 0.0 0.00 0.00 0.00 86 1025.3
20260509081944 56 101 0.0 0.0 0.00 0.00 0.00 86 1025.1
20260509081444 56 101 0.0 0.0 0.00 0.00 0.00 85 1025.1
20260509080944 56 101 0.0 0.0 0.00 0.00 0.00 85 1025.0
20260509080444 57 101 0.0 0.0 0.00 0.00 0.00 85 1024.8
20260509075944 57 101 0.0 0.0 0.00 0.00 0.00 84 1024.8
20260509075444 57 101 0.0 0.0 0.00 0.00 0.00 82 1024.7
20260509074944 57 101 0.0 0.0 0.00 0.00 0.00 81 1024.8
20260509074444 58 101 0.0 0.0 0.00 0.00 0.00 81 1024.6
20260509073944 58 101 0.0 0.9 0.00 0.00 0.00 81 1024.6
20260509073444 59 101 0.0 0.0 0.00 0.00 0.00 79 1024.5
20260509072944 59 101 0.0 0.0 0.00 0.00 0.00 79 1024.4
20260509072444 59 101 0.9 0.9 0.00 0.00 0.00 77 1024.5
20260509071944 60 101 0.0 0.9 0.00 0.00 0.00 77 1024.3
20260509071444 60 101 0.0 1.7 0.00 0.00 0.00 75 1024.3
20260509070944 61 101 0.9 0.9 0.00 0.00 0.00 74 1024.3
20260509070444 61 101 0.9 2.6 0.00 0.00 0.00 74 1024.2
20260509065944 62 100 0.0 6.1 0.00 0.00 0.00 73 1024.0
20260509065444 63 115 0.0 0.0 0.00 0.00 0.00 72 1024.0
20260509064944 63 115 0.9 0.9 0.00 0.00 0.00 72 1024.0
20260509064444 64 115 0.9 1.7 0.00 0.00 0.00 71 1023.9
20260509063944 65 115 0.9 1.7 0.00 0.00 0.00 68 1023.9
20260509063444 66 115 0.9 1.7 0.00 0.00 0.00 66 1023.8
20260509062944 67 115 0.9 1.7 0.00 0.00 0.00 64 1023.7
20260509062444 67 115 0.9 1.7 0.00 0.00 0.00 62 1023.7
20260509061944 68 115 0.0 1.7 0.00 0.00 0.00 58 1023.6
20260509061444 68 116 0.0 0.0 0.00 0.00 0.00 58 1023.5
20260509060944 68 119 0.0 0.0 0.00 0.00 0.00 60 1023.5
20260509060444 68 119 0.0 0.0 0.00 0.00 0.00 59 1023.4
20260509055944 68 119 0.0 0.0 0.00 0.00 0.00 58 1023.3
20260509055444 69 119 0.0 1.7 0.00 0.00 0.00 57 1023.4
20260509054944 69 119 0.0 0.0 0.00 0.00 0.00 56 1023.2
20260509054444 69 119 0.9 1.7 0.00 0.00 0.00 57 1023.3
20260509053945 69 119 0.9 2.6 0.00 0.00 0.00 55 1023.3
20260509053444 69 119 0.9 2.6 0.00 0.00 0.00 55 1023.2
20260509052944 69 119 0.9 1.7 0.00 0.00 0.00 55 1023.1
20260509052444 69 113 1.7 2.6 0.00 0.00 0.00 52 1023.2
20260509051944 69 113 2.6 3.5 0.00 0.00 0.00 52 1023.2
20260509051444 70 126 2.6 3.5 0.00 0.00 0.00 54 1023.1
20260509050944 70 126 1.7 4.3 0.00 0.00 0.00 54 1023.0
20260509050444 70 149 1.7 5.2 0.00 0.00 0.00 53 1023.1
20260509045944 71 157 0.9 3.5 0.00 0.00 0.00 52 1023.2
20260509045444 71 163 1.7 3.5 0.00 0.00 0.00 51 1023.1
20260509044944 71 160 0.9 3.5 0.00 0.00 0.00 52 1023.1
20260509044444 72 173 0.9 2.6 0.00 0.00 0.00 49 1023.2
20260509043944 73 173 0.9 2.6 0.00 0.00 0.00 49 1023.2
20260509043444 73 173 1.7 4.3 0.00 0.00 0.00 50 1023.2
20260509042944 73 157 1.7 3.5 0.00 0.00 0.00 49 1023.3
20260509042444 73 160 0.9 3.5 0.00 0.00 0.00 52 1023.4
20260509041944 72 161 0.9 4.3 0.00 0.00 0.00 51 1023.3
20260509041444 72 313 1.7 1.7 0.00 0.00 0.00 51 1023.3
20260509040944 72 309 2.6 6.1 0.00 0.00 0.00 49 1023.3
20260509040444 72 260 0.9 6.1 0.00 0.00 0.00 49 1023.4
20260509035944 72 214 1.7 1.7 0.00 0.00 0.00 49 1023.4
20260509035444 72 246 1.7 3.5 0.00 0.00 0.00 49 1023.5
20260509034944 72 245 1.7 2.6 0.00 0.00 0.00 51 1023.5
20260509034444 72 238 1.7 5.2 0.00 0.00 0.00 49 1023.5
20260509033944 72 220 1.7 2.6 0.00 0.00 0.00 50 1023.5
20260509033444 72 211 1.7 5.2 0.00 0.00 0.00 50 1023.6
20260509032944 72 186 1.7 3.5 0.00 0.00 0.00 54 1023.6
20260509032444 71 207 2.6 4.3 0.00 0.00 0.00 52 1023.6
20260509031944 71 205 2.6 7.0 0.00 0.00 0.00 50 1023.5
20260509031444 72 198 1.7 4.3 0.00 0.00 0.00 51 1023.7
20260509030944 71 239 1.7 3.5 0.00 0.00 0.00 51 1023.7
20260509030444 71 95 2.6 5.2 0.00 0.00 0.00 50 1023.7
20260509025944 71 107 2.6 5.2 0.00 0.00 0.00 53 1023.8
20260509025444 72 97 1.7 6.1 0.00 0.00 0.00 51 1023.7
20260509024944 72 198 0.9 3.5 0.00 0.00 0.00 50 1024.0
20260509024444 72 202 1.7 4.3 0.00 0.00 0.00 52 1023.9
20260509023944 71 176 2.6 5.2 0.00 0.00 0.00 55 1024.1
20260509023444 71 88 1.7 6.1 0.00 0.00 0.00 55 1024.1
20260509022944 71 101 1.7 6.1 0.00 0.00 0.00 54 1024.3
20260509022444 71 212 0.9 4.3 0.00 0.00 0.00 52 1024.4
20260509021944 71 205 0.9 1.7 0.00 0.00 0.00 53 1024.5
20260509021444 70 205 0.9 2.6 0.00 0.00 0.00 56 1024.6
20260509020944 70 127 0.9 4.3 0.00 0.00 0.00 55 1024.5
20260509020444 70 153 0.9 2.6 0.00 0.00 0.00 55 1024.6
20260509015944 69 140 1.7 2.6 0.00 0.00 0.00 57 1024.6
20260509015444 69 132 1.7 3.5 0.00 0.00 0.00 56 1024.8
20260509014944 69 215 0.9 3.5 0.00 0.00 0.00 61 1024.7
20260509014445 69 216 1.7 2.6 0.00 0.00 0.00 58 1024.8
20260509013945 68 215 1.7 6.1 0.00 0.00 0.00 58 1024.8
20260509013445 68 240 0.9 4.3 0.00 0.00 0.00 60 1025.0
20260509012945 67 150 1.7 2.6 0.00 0.00 0.00 61 1025.0
20260509012445 66 157 1.7 3.5 0.00 0.00 0.00 61 1025.1
20260509011945 65 163 1.7 4.3 0.00 0.00 0.00 65 1025.1
20260509011445 64 163 0.9 4.3 0.00 0.00 0.00 64 1025.1
20260509010945 63 207 0.9 3.5 0.00 0.00 0.00 68 1025.1
20260509010445 62 266 0.9 3.5 0.00 0.00 0.00 70 1025.2
20260509005945 62 285 0.9 1.7 0.00 0.00 0.00 72 1025.5
20260509005445 61 308 1.7 3.5 0.00 0.00 0.00 72 1025.7
20260509004945 61 298 0.9 3.5 0.00 0.00 0.00 73 1025.8
20260509004445 61 290 0.9 2.6 0.00 0.00 0.00 73 1025.9
20260509003945 60 290 0.9 2.6 0.00 0.00 0.00 73 1025.7
20260509003445 60 263 0.0 3.5 0.00 0.00 0.00 75 1025.9
20260509002945 59 271 0.0 0.0 0.00 0.00 0.00 75 1025.9
20260509002445 59 271 0.0 0.0 0.00 0.00 0.00 77 1025.9
20260509001945 59 265 0.0 0.0 0.00 0.00 0.00 77 1025.9
20260509001445 58 265 0.0 0.0 0.00 0.00 0.00 79 1026.0
20260509000945 58 259 0.0 0.0 0.00 0.00 0.00 79 1026.2
20260509000447 58 259 0.0 0.0 0.00 0.00 0.00 79 1026.1
20260508235945 57 259 0.0 0.0 0.00 0.00 0.00 80 1026.1
20260508235445 57 240 0.0 0.0 0.00 0.00 0.00 82 1026.0
20260508234945 57 238 0.0 0.0 0.00 0.00 0.00 82 1026.1
20260508234445 56 238 0.0 0.0 0.00 0.00 0.00 83 1026.1
20260508233945 56 238 0.0 0.0 0.00 0.00 0.00 84 1026.0
20260508233445 55 238 0.0 0.0 0.00 0.00 0.00 86 1026.1
20260508232945 54 238 0.0 0.0 0.00 0.00 0.00 87 1026.0
20260508232445 54 238 0.0 0.0 0.00 0.00 0.00 88 1026.1
20260508231945 54 238 0.0 0.0 0.00 0.00 0.00 88 1026.0
20260508231445 53 238 0.0 0.0 0.00 0.00 0.00 89 1026.0
20260508230945 53 238 0.0 1.7 0.00 0.00 0.00 89 1026.1
20260508230445 52 238 0.0 0.0 0.00 0.00 0.00 91 1026.1
20260508225945 52 238 0.0 0.0 0.00 0.00 0.00 92 1026.0
20260508225445 51 238 0.0 0.0 0.00 0.00 0.00 93 1026.0
20260508224945 51 238 0.0 0.0 0.00 0.00 0.00 95 1026.1
20260508224445 51 238 0.0 0.0 0.00 0.00 0.00 97 1026.0
20260508223945 50 238 0.0 0.0 0.00 0.00 0.00 97 1026.1
20260508223445 49 238 0.0 0.0 0.00 0.00 0.00 97 1026.0
20260508222945 49 238 0.0 0.0 0.00 0.00 0.00 98 1025.9
20260508222445 48 238 0.0 0.0 0.00 0.00 0.00 98 1025.9
20260508221945 48 238 0.0 0.0 0.00 0.00 0.00 98 1025.9
20260508221445 47 238 0.0 0.0 0.00 0.00 0.00 99 1025.9
20260508220945 46 238 0.0 0.0 0.00 0.00 0.00 99 1025.9
20260508220445 45 238 0.0 0.0 0.00 0.00 0.00 99 1025.6
20260508215945 44 238 0.0 0.0 0.00 0.00 0.00 99 1025.7
20260508215445 42 238 0.0 0.0 0.00 0.00 0.00 98 1025.7
20260508214945 41 238 0.0 0.0 0.00 0.00 0.00 97 1025.6
20260508214445 41 238 0.0 0.0 0.00 0.00 0.00 98 1025.7
20260508213945 40 238 0.0 0.0 0.00 0.00 0.00 97 1025.6
20260508213445 40 238 0.0 0.0 0.00 0.00 0.00 97 1025.4
20260508212945 40 238 0.0 0.0 0.00 0.00 0.00 97 1025.5
20260508212445 40 238 0.0 0.0 0.00 0.00 0.00 97 1025.4
20260508211945 40 238 0.0 0.0 0.00 0.00 0.00 97 1025.3
20260508211445 40 238 0.0 0.0 0.00 0.00 0.00 97 1025.3
20260508210945 39 238 0.0 0.0 0.00 0.00 0.00 97 1025.3
20260508210445 39 238 0.0 0.0 0.00 0.00 0.00 97 1025.3
20260508205945 39 238 0.0 0.0 0.00 0.00 0.00 97 1025.3
20260508205445 39 238 0.0 0.0 0.00 0.00 0.00 97 1025.1
20260508204945 39 238 0.0 0.0 0.00 0.00 0.00 97 1025.2
20260508204445 39 238 0.0 0.0 0.00 0.00 0.00 97 1024.9
20260508203945 39 238 0.0 0.0 0.00 0.00 0.00 97 1024.9
20260508203445 39 238 0.0 0.0 0.00 0.00 0.00 97 1024.8
20260508202945 39 238 0.0 0.0 0.00 0.00 0.00 97 1025.1
20260508202445 39 238 0.0 0.0 0.00 0.00 0.00 97 1024.8
20260508201945 40 238 0.0 0.0 0.00 0.00 0.00 97 1024.8
20260508201445 40 238 0.0 0.0 0.00 0.00 0.00 97 1024.6
20260508200945 39 238 0.0 0.0 0.00 0.00 0.00 97 1024.7
20260508200445 40 238 0.0 0.0 0.00 0.00 0.00 97 1024.5
20260508195945 40 238 0.0 0.0 0.00 0.00 0.00 97 1024.5
20260508195445 40 238 0.0 0.0 0.00 0.00 0.00 97 1024.3
20260508194945 40 238 0.0 0.0 0.00 0.00 0.00 97 1024.4
20260508194445 40 238 0.0 0.0 0.00 0.00 0.00 96 1024.4
20260508193945 40 237 0.0 0.0 0.00 0.00 0.00 97 1024.2
20260508193445 40 238 0.0 0.0 0.00 0.00 0.00 97 1024.0
20260508192945 40 237 0.0 0.0 0.00 0.00 0.00 97 1024.0
20260508192445 40 237 0.0 0.0 0.00 0.00 0.00 97 1023.9
20260508191945 40 238 0.0 0.0 0.00 0.00 0.00 97 1023.8
20260508191445 40 237 0.0 0.0 0.00 0.00 0.00 96 1023.8
20260508190945 40 238 0.0 0.0 0.00 0.00 0.00 96 1023.8
20260508190445 40 238 0.0 0.0 0.00 0.00 0.00 96 1023.6
20260508185945 40 238 0.0 0.0 0.00 0.00 0.00 96 1023.6
20260508185445 41 238 0.0 0.0 0.00 0.00 0.00 96 1023.6
20260508184945 41 238 0.0 0.0 0.00 0.00 0.00 96 1023.4
20260508184445 41 237 0.0 0.0 0.00 0.00 0.00 96 1023.4
20260508183945 41 237 0.0 0.0 0.00 0.00 0.00 96 1023.5
20260508183445 41 237 0.0 0.0 0.00 0.00 0.00 96 1023.5
20260508182945 41 238 0.0 0.0 0.00 0.00 0.00 96 1023.3
20260508182445 41 238 0.0 0.0 0.00 0.00 0.00 96 1023.3
20260508181945 41 237 0.0 0.0 0.00 0.00 0.00 96 1023.4
20260508181445 41 237 0.0 0.0 0.00 0.00 0.00 96 1023.3
20260508180945 41 238 0.0 0.0 0.00 0.00 0.00 96 1023.1
20260508180445 41 238 0.0 0.0 0.00 0.00 0.00 96 1023.2
20260508175945 41 238 0.0 0.0 0.00 0.00 0.00 96 1023.0
20260508175445 42 238 0.0 0.0 0.00 0.00 0.00 96 1022.9
20260508174945 42 238 0.0 0.0 0.00 0.00 0.00 96 1022.9
20260508174445 42 238 0.0 0.0 0.00 0.00 0.00 96 1022.9
20260508173945 42 238 0.0 0.0 0.00 0.00 0.00 96 1022.9
20260508173445 42 238 0.0 0.0 0.00 0.00 0.00 96 1023.0
20260508172945 41 238 0.0 0.0 0.00 0.00 0.00 96 1022.9
20260508172445 41 238 0.0 0.0 0.00 0.00 0.00 96 1022.9
20260508171945 41 238 0.0 0.0 0.00 0.00 0.00 96 1023.0
20260508171445 41 237 0.0 0.0 0.00 0.00 0.00 96 1022.9
20260508170945 42 238 0.0 0.0 0.00 0.00 0.00 96 1023.0
20260508170445 42 238 0.0 0.0 0.00 0.00 0.00 96 1023.0
20260508165945 42 238 0.0 0.0 0.00 0.00 0.00 96 1022.9
20260508165445 41 237 0.0 0.0 0.00 0.00 0.00 96 1023.1
20260508164945 41 238 0.0 0.0 0.00 0.00 0.00 96 1023.1
20260508164445 42 238 0.0 0.0 0.00 0.00 0.00 96 1023.0
20260508163945 42 237 0.0 0.0 0.00 0.00 0.00 95 1023.1
20260508163446 42 238 0.0 0.0 0.00 0.00 0.00 95 1023.1
20260508162946 42 238 0.0 0.0 0.00 0.00 0.00 96 1023.0
20260508162446 42 237 0.0 0.0 0.00 0.00 0.00 96 1022.9
20260508161946 42 237 0.0 0.0 0.00 0.00 0.00 96 1023.0
20260508161446 42 237 0.0 0.0 0.00 0.00 0.00 96 1022.9
20260508160946 42 238 0.0 0.0 0.00 0.00 0.00 95 1022.9
20260508160446 42 238 0.0 0.0 0.00 0.00 0.00 95 1022.9
20260508155946 42 238 0.0 0.0 0.00 0.00 0.00 95 1022.9
20260508155446 43 237 0.0 0.0 0.00 0.00 0.00 95 1023.0
20260508154946 43 237 0.0 0.0 0.00 0.00 0.00 95 1022.9
20260508154446 43 238 0.0 0.0 0.00 0.00 0.00 95 1022.9
20260508153946 43 238 0.0 0.0 0.00 0.00 0.00 95 1022.9
20260508153446 43 238 0.0 0.0 0.00 0.00 0.00 95 1022.9
20260508152946 43 238 0.0 0.0 0.00 0.00 0.00 95 1022.9
20260508152446 43 238 0.0 0.0 0.00 0.00 0.00 95 1022.8
20260508151946 43 238 0.0 0.0 0.00 0.00 0.00 95 1022.9
20260508151446 43 238 0.0 0.0 0.00 0.00 0.00 95 1022.8
20260508150946 44 237 0.0 0.0 0.00 0.00 0.00 95 1022.9
20260508150446 44 238 0.0 0.0 0.00 0.00 0.00 95 1022.9
20260508145946 44 238 0.0 0.0 0.00 0.00 0.00 95 1023.0
20260508145446 44 237 0.0 0.0 0.00 0.00 0.00 95 1022.9
20260508144946 44 238 0.0 0.0 0.00 0.00 0.00 95 1022.8
20260508144446 44 238 0.0 0.0 0.00 0.00 0.00 95 1022.9
20260508143946 44 238 0.0 0.0 0.00 0.00 0.00 95 1022.9
20260508143446 44 238 0.0 1.7 0.00 0.00 0.00 95 1022.9
20260508142946 44 238 0.0 0.0 0.00 0.00 0.00 95 1022.8
20260508142446 44 238 0.0 0.0 0.00 0.00 0.00 95 1022.8
20260508141946 44 238 0.0 0.0 0.00 0.00 0.00 95 1022.8
20260508141446 44 238 0.0 0.0 0.00 0.00 0.00 95 1022.9
20260508140946 44 238 0.0 0.0 0.00 0.00 0.00 94 1022.8
20260508140446 44 238 0.0 0.0 0.00 0.00 0.00 94 1022.8
20260508135946 44 238 0.0 0.0 0.00 0.00 0.00 94 1022.8
20260508135446 44 238 0.0 0.0 0.00 0.00 0.00 94 1022.8
20260508134946 44 238 0.0 0.0 0.00 0.00 0.00 94 1022.8
20260508134446 44 238 0.0 0.0 0.00 0.00 0.00 94 1022.9
20260508133946 44 238 0.0 0.0 0.00 0.00 0.00 94 1022.8
20260508133446 44 238 0.0 0.0 0.00 0.00 0.00 94 1022.8
20260508132946 44 238 0.0 0.0 0.00 0.00 0.00 94 1022.8
20260508132446 44 238 0.0 0.0 0.00 0.00 0.00 93 1022.8
20260508131946 44 238 0.0 0.0 0.00 0.00 0.00 93 1022.8
20260508131446 45 238 0.0 0.0 0.00 0.00 0.00 93 1022.8
20260508130946 45 238 0.0 0.0 0.00 0.00 0.00 93 1022.8
20260508130446 45 238 0.0 0.0 0.00 0.00 0.00 93 1022.8
20260508125946 45 238 0.0 0.0 0.00 0.00 0.00 93 1022.8
20260508125446 45 238 0.0 0.0 0.00 0.00 0.00 93 1022.9
20260508124946 45 238 0.0 0.0 0.00 0.00 0.00 92 1022.9
20260508124446 45 238 0.0 0.0 0.00 0.00 0.00 92 1023.0
20260508123946 45 238 0.9 1.7 0.00 0.00 0.00 92 1022.9
20260508123446 45 238 0.0 1.7 0.00 0.00 0.00 92 1022.7
20260508122946 45 238 0.0 0.9 0.00 0.00 0.00 92 1022.8
20260508122446 46 238 0.0 0.9 0.00 0.00 0.00 91 1022.9
20260508121946 46 238 0.0 0.0 0.00 0.00 0.00 91 1022.9
20260508121446 46 238 0.0 0.0 0.00 0.00 0.00 91 1022.9
20260508120946 46 238 0.0 0.0 0.00 0.00 0.00 90 1023.0
20260508120446 46 238 0.0 0.0 0.00 0.00 0.00 90 1022.9
20260508115946 46 238 0.0 0.0 0.00 0.00 0.00 90 1022.8
20260508115446 46 238 0.0 0.0 0.00 0.00 0.00 90 1022.8
20260508114946 46 238 0.0 0.0 0.00 0.00 0.00 90 1022.7
20260508114446 47 238 0.9 0.9 0.00 0.00 0.00 90 1022.7
20260508113946 47 238 0.9 1.7 0.00 0.00 0.00 90 1022.8
20260508113446 47 238 0.9 1.7 0.00 0.00 0.00 90 1022.6
20260508112946 47 238 0.0 0.9 0.00 0.00 0.00 89 1022.4
20260508112446 47 238 0.0 0.0 0.00 0.00 0.00 88 1022.3
20260508111946 47 238 0.0 0.0 0.00 0.00 0.00 87 1022.2
20260508111446 47 238 0.0 0.9 0.00 0.00 0.00 87 1022.2
20260508110946 48 238 0.0 0.9 0.00 0.00 0.00 88 1022.4
20260508110446 48 238 0.0 0.0 0.00 0.00 0.00 87 1022.2
20260508105946 48 238 0.0 0.0 0.00 0.00 0.00 87 1022.3
20260508105446 48 238 0.0 0.9 0.00 0.00 0.00 87 1022.3
20260508104946 49 238 0.9 0.9 0.00 0.00 0.00 86 1022.2
20260508104446 49 238 0.9 0.9 0.00 0.00 0.00 86 1022.2
20260508103946 49 238 0.0 0.9 0.00 0.00 0.00 86 1022.2
20260508103446 49 238 0.0 0.0 0.00 0.00 0.00 85 1022.1
20260508102946 49 238 0.0 0.0 0.00 0.00 0.00 84 1021.9
20260508102446 50 238 0.0 0.0 0.00 0.00 0.00 84 1021.9
20260508101946 50 238 0.9 0.0 0.00 0.00 0.00 84 1022.0
20260508101446 50 238 0.9 1.7 0.00 0.00 0.00 84 1021.9
20260508100946 50 238 0.9 1.7 0.00 0.00 0.00 84 1021.9
20260508100446 51 238 0.0 1.7 0.00 0.00 0.00 83 1021.8
20260508095946 51 238 0.0 0.9 0.00 0.00 0.00 82 1021.8
20260508095446 51 238 0.9 1.7 0.00 0.00 0.00 82 1021.7
20260508094946 52 238 0.0 0.9 0.00 0.00 0.00 81 1021.6
20260508094446 52 238 0.0 1.7 0.00 0.00 0.00 80 1021.5
20260508093946 52 238 0.0 0.9 0.00 0.00 0.00 79 1021.3
20260508093446 53 238 0.0 0.0 0.00 0.00 0.00 79 1021.3
20260508092946 53 238 0.0 1.7 0.00 0.00 0.00 79 1021.1
20260508092446 53 238 0.0 0.9 0.00 0.00 0.00 78 1021.1
20260508091946 53 238 0.9 0.9 0.00 0.00 0.00 77 1021.1
20260508091446 54 238 0.9 1.7 0.00 0.00 0.00 76 1021.1
20260508090946 54 238 0.9 1.7 0.00 0.00 0.00 75 1021.0